Regional Weather Roundup
Issued by NWS Charleston, SC

Current Version | Previous Version | Graphics & Text | Print | Product List | Glossary On
Versions: 1 2 3 4 5 6 7 8 9 10 11 12 13 14 15 16 17 18 19 20 21 22 23 24 25 26 27 28 29 30 31 32 33 34 35 36 37 38 39 40 41 42 43 44 45 46 47 48 49 50
000 ASUS42 KCHS 270310 RWRCHS REGIONAL WEATHER ROUNDUP NATIONAL WEATHER SERVICE CHARLESTON SC 1000 PM EST MON JAN 26 2015 NOTE: "FAIR" INDICATES FEW OR NO CLOUDS BELOW 12,000 FEET WITH NO SIGNIFICANT WEATHER AND/OR OBSTRUCTIONS TO VISIBILITY. NOT ALL STATIONS ARE QUALITY CONTROLLED BY THE NATIONAL WEATHER SERVICE. USE DATA WITH CAUTION...ESPECIALLY DEWPOINT OBSERVATIONS. SCZ027-030-031-034>040-042>050-270400- ...SOUTHEAST SOUTH CAROLINA... CITY SKY/WX TMP DP RH WIND PRES REMARKS N CHARLESTON CLEAR 46 33 60 W12G23 29.78R WATERFRONT PRK N/A 46 N/A N/A W12G20 N/A MOUNT PLEASANT FAIR N/A N/A N/A W10G22 29.75S PINOPOLIS NOT AVBL MONCKS CORNER FAIR 48 36 61 W5 29.76R SUMMERVILLE NOT AVBL BEAUFORT MCAS CLEAR 44 31 60 W14G23 29.83S BEAUFORT ARPT FAIR 45 34 65 W14G23 29.82S HILTON HEAD IS MOCLDY 46 34 61 W14G23 29.84S WALTERBORO CLEAR 45 30 57 W10G18 29.81S ALLENDALE FAIR 41 32 70 W12G17 29.84R ...SOUTHERN MIDLANDS AND PEE DEE... CITY SKY/WX TMP DP RH WIND PRES REMARKS GEORGETOWN NOT AVBL KINGSTREE NOT AVBL ORANGEBURG CLEAR 43 31 62 W14 29.79R BARNWELL FAIR 41 32 70 W9 29.83R AIKEN FAIR 37 30 75 W9G22 29.84S WCI 31 MANNING NOT AVBL COLUMBIA PTCLDY 43 31 62 W13 29.79R SUMTER PTCLDY 45 30 56 W10 29.74R FLORENCE CLOUDY 48 39 71 NW5 29.71R MYRTLE BEACH CLOUDY 48 41 76 NW10 29.71S N MYRTLE BEACH MOCLDY 47 41 80 NW8 29.68S $$ GAZ063-065-086>088-099>101-113>116-118-119-134>141-150-270400- ...SOUTHEAST GEORGIA... CITY SKY/WX TMP DP RH WIND PRES REMARKS SAVANNAH ARPT PTCLDY 44 30 57 NW16 29.87R HUNTER AAF PTCLDY 45 33 62 W13 29.84R FORT STEWART CLEAR 44 31 62 NW16G26 29.88R STATESBORO CLEAR 40 32 73 W18G24 29.89R WCI 31 SYLVANIA CLEAR 41 32 71 NW13G22 29.87R CLAXTON FAIR 41 32 70 W12 29.90R ...CSRA...CENTRAL AND FAR SOUTHEAST GEORGIA... CITY SKY/WX TMP DP RH WIND PRES REMARKS THOMSON MOCLDY 40 32 73 W7 29.91S WCI 35 AUGUSTA-BUSH CLEAR 40 28 62 W14 29.86R WCI 32 AUGUSTA-DANIEL PTCLDY 41 29 62 W9G18 29.85R SWAINSBORO FAIR 41 27 56 W10G17 29.91R VIDALIA CLEAR 41 32 70 W12G23 29.92R EASTMAN FAIR 39 32 75 NW8 29.98R WCI 34 HAZLEHURST FAIR 42 34 72 NW8 29.94R ALMA FAIR 43 32 65 NW15G21 29.93R WAYCROSS PTCLDY 47 38 73 NW10G17 29.93S JESUP FAIR 46 36 66 NW12G21 29.91R BAXLEY FAIR 43 34 70 NW14 29.93R BRUNSWICK PTCLDY 46 34 61 W12G18 29.90S SAINT SIMONS CLEAR 47 33 58 W14G24 29.89R $$ SCZ027-028-034-036>038-045-046-048>050-GAZ119-141-270400- ...LAKE AND SUPPLEMENTAL COASTAL OBSERVATIONS... STATION/POSITION TIME TEMP WIND PRES WAVE SWELL AIR SEA DIR/SP/G HT/PER HT/PER/DIR (UTC) (F) (DEG/KT/KT) (MB) (FT/S) (FT/S/D) UPR LAKE MARION NOT AVBL WINYAH BAY 0200 47 260/ 3 1005.0S LAKE MURRAY 0200 45 340/ 3/ 7 1008.1R ACE BASIN NERRS NOT AVBL FORT PULASKI 0300 47 53 310/ 21/ 29 1010.9S SAPELO ISLAND 0200 49 290/ 13 1011.0S $$ ANZ835-935-AMZ111-154-330-350-352-354-370-450-454-472-270400- ...C-MAN AND BUOY OBSERVATIONS... STATION/POSITION TIME TEMP WIND PRES WAVE SWELL AIR SEA DIR/SP/G HT/PER HT/PER/DIR (UTC) (F) (DEG/KT/KT) (MB) (FT/S) (FT/S/D) BUOY 41004 0300 55 68 280/ 25/ 31 1005.7R 8/ 7 BUOY 41008 0300 50 55 290/ 23/ 29 1010.4R 4/ 5 FOLLY BEACH CMAN 0200 49 270/ 10/ 16 1008.1R CAPERS NEARSHORE 0200 52 300/ 17/ 19 N/A FRIPP NEARSHORE 0200 50 290/ 23/ 25 N/A STATION/POSITION TIME TEMP WIND PRES WAVE SWELL AIR SEA DIR/SP/G HT/PER HT/PER/DIR (UTC) (F) (DEG/KT/KT) (MB) (FT/S) (FT/S/D) 5E ST. MARYS GA 0300 58 N/A 3/ 4 FRYING PAN BUOY 0300 53 67 310/ 19/ 23 1004.1R 6/ 7 BUOY 41025 0300 51 70 320/ 21/ 25 999.9R 4/ 4 2/ 40/ 9 CAPE LOOKOUT NC 0200 49 300/ 14/ 15 1001.8R BUOY 41002 0204 64 72 270/ 29/ 35 1001.1F 13/10 BUOY 41010 0300 65 76 300/ 23/ 29 1009.2F 12/ 8 ST AUGUSTINE FL 0300 49 310/ 14/ 17 1013.3R $$

USA.gov is the U.S. government's official web portal to all federal, state and local government web resources and services.